Time,TemperatureF,DewpointF,PressureIn,WindDirection,WindDirectionDegrees,WindSpeedMPH,WindSpeedGustMPH,Humidity,HourlyPrecipIn,Conditions,Clouds,dailyrainin,SoftwareType,DateUTC
2013-09-18 00:00:00,58.0,54.5,30.22,North,32767,0.0,0.0,88,0.00,,,0.00,Wunderground v.1.15,2013-09-18 04:00:00,
2013-09-18 00:05:00,58.0,54.5,30.22,North,32767,0.0,0.0,88,0.00,,,0.00,Wunderground v.1.15,2013-09-18 04:05:00,
2013-09-18 00:10:00,58.0,54.5,30.22,North,32767,0.0,0.0,88,0.00,,,0.00,Wunderground v.1.15,2013-09-18 04:10:00,
2013-09-18 00:15:00,58.1,54.6,30.22,North,32767,0.0,0.0,88,0.00,,,0.00,Wunderground v.1.15,2013-09-18 04:15:00,
2013-09-18 00:20:00,58.1,54.6,30.22,North,32767,0.0,0.0,88,0.00,,,0.00,Wunderground v.1.15,2013-09-18 04:20:00,
2013-09-18 00:30:00,58.1,54.6,30.21,North,360,0.0,0.0,88,0.00,,,0.00,Wunderground v.1.15,2013-09-18 04:30:00,
2013-09-18 00:40:00,58.2,55.0,30.22,North,32767,0.0,0.0,89,0.00,,,0.00,Wunderground v.1.15,2013-09-18 04:40:00,
2013-09-18 00:45:00,58.2,55.0,30.22,North,360,0.0,0.0,89,0.00,,,0.00,Wunderground v.1.15,2013-09-18 04:45:00,
2013-09-18 00:50:00,58.0,54.5,30.22,North,360,0.0,0.0,88,0.00,,,0.00,Wunderground v.1.15,2013-09-18 04:50:00,
2013-09-18 01:00:00,58.0,54.5,30.22,North,360,0.0,0.0,88,0.00,,,0.00,Wunderground v.1.15,2013-09-18 05:00:00,
2013-09-18 01:05:00,58.0,54.2,30.22,North,360,0.0,0.0,87,0.00,,,0.00,Wunderground v.1.15,2013-09-18 05:05:00,
2013-09-18 01:15:00,58.1,54.2,30.22,North,32767,0.0,0.0,87,0.00,,,0.00,Wunderground v.1.15,2013-09-18 05:15:00,
2013-09-18 01:25:00,58.1,54.2,30.22,North,32767,0.0,0.0,87,0.00,,,0.00,Wunderground v.1.15,2013-09-18 05:25:00,
2013-09-18 01:35:00,58.1,54.6,30.22,North,360,0.0,0.0,88,0.00,,,0.00,Wunderground v.1.15,2013-09-18 05:35:00,
2013-09-18 01:40:00,58.2,55.0,30.22,North,32767,0.0,0.0,89,0.00,,,0.00,Wunderground v.1.15,2013-09-18 05:40:00,
2013-09-18 01:50:00,58.0,54.5,30.21,North,32767,0.0,0.0,88,0.00,,,0.00,Wunderground v.1.15,2013-09-18 05:50:00,
2013-09-18 02:00:00,57.9,54.1,30.22,North,32767,0.0,0.0,87,0.00,,,0.00,Wunderground v.1.15,2013-09-18 06:00:00,
2013-09-18 02:05:00,57.8,53.6,30.22,North,360,0.0,0.0,86,0.00,,,0.00,Wunderground v.1.15,2013-09-18 06:05:00,
2013-09-18 02:15:00,57.9,53.7,30.22,North,32767,0.0,0.0,86,0.00,,,0.00,Wunderground v.1.15,2013-09-18 06:15:00,
2013-09-18 02:25:00,57.9,53.4,30.22,North,32767,0.0,0.0,85,0.00,,,0.00,Wunderground v.1.15,2013-09-18 06:25:00,
2013-09-18 02:35:00,58.0,53.8,30.21,North,32767,0.0,0.0,86,0.00,,,0.00,Wunderground v.1.15,2013-09-18 06:35:00,
2013-09-18 02:45:00,58.0,54.2,30.22,North,32767,0.0,0.0,87,0.00,,,0.00,Wunderground v.1.15,2013-09-18 06:45:00,
2013-09-18 02:50:00,57.9,53.4,30.21,North,32767,0.0,0.0,85,0.00,,,0.00,Wunderground v.1.15,2013-09-18 06:50:00,
2013-09-18 03:00:00,57.8,54.0,30.21,North,32767,0.0,0.0,87,0.00,,,0.00,Wunderground v.1.15,2013-09-18 07:00:00,
2013-09-18 03:05:00,57.8,54.0,30.21,North,32767,0.0,0.0,87,0.00,,,0.00,Wunderground v.1.15,2013-09-18 07:05:00,
2013-09-18 03:15:00,57.6,53.1,30.21,North,360,0.0,0.0,85,0.00,,,0.00,Wunderground v.1.15,2013-09-18 07:15:00,
2013-09-18 03:25:00,57.6,53.1,30.21,North,360,0.0,0.0,85,0.00,,,0.00,Wunderground v.1.15,2013-09-18 07:25:00,
2013-09-18 03:35:00,57.6,52.8,30.21,North,360,0.0,0.0,84,0.00,,,0.00,Wunderground v.1.15,2013-09-18 07:35:00,
2013-09-18 03:40:00,57.6,52.8,30.20,North,32767,0.0,0.0,84,0.00,,,0.00,Wunderground v.1.15,2013-09-18 07:40:00,
2013-09-18 03:45:00,57.6,52.8,30.20,North,360,0.0,0.0,84,0.00,,,0.00,Wunderground v.1.15,2013-09-18 07:45:00,
2013-09-18 03:55:00,57.6,52.5,30.20,North,360,0.0,0.0,83,0.00,,,0.00,Wunderground v.1.15,2013-09-18 07:55:00,
2013-09-18 04:00:00,57.6,52.5,30.20,North,32767,0.0,0.0,83,0.00,,,0.00,Wunderground v.1.15,2013-09-18 08:00:00,
2013-09-18 04:05:00,57.6,52.5,30.20,North,32767,0.0,0.0,83,0.00,,,0.00,Wunderground v.1.15,2013-09-18 08:05:00,
2013-09-18 04:15:00,57.5,52.7,30.20,North,32767,0.0,0.0,84,0.00,,,0.00,Wunderground v.1.15,2013-09-18 08:15:00,
2013-09-18 04:20:00,57.5,52.7,30.20,North,32767,0.0,0.0,84,0.00,,,0.00,Wunderground v.1.15,2013-09-18 08:20:00,
2013-09-18 04:30:00,57.3,52.8,30.19,North,360,0.0,0.0,85,0.00,,,0.00,Wunderground v.1.15,2013-09-18 08:30:00,
2013-09-18 04:40:00,57.2,52.7,30.20,North,360,0.0,0.0,85,0.00,,,0.00,Wunderground v.1.15,2013-09-18 08:40:00,
2013-09-18 04:50:00,57.1,52.6,30.20,North,32767,0.0,0.0,85,0.00,,,0.00,Wunderground v.1.15,2013-09-18 08:50:00,
2013-09-18 04:55:00,57.1,52.6,30.20,North,360,0.0,0.0,85,0.00,,,0.00,Wunderground v.1.15,2013-09-18 08:55:00,
2013-09-18 05:05:00,56.9,52.4,30.19,North,360,0.0,0.0,85,0.00,,,0.00,Wunderground v.1.15,2013-09-18 09:05:00,
2013-09-18 05:15:00,56.9,52.4,30.19,North,32767,0.0,0.0,85,0.00,,,0.00,Wunderground v.1.15,2013-09-18 09:15:00,
2013-09-18 05:25:00,56.9,53.1,30.19,North,360,0.0,0.0,87,0.00,,,0.00,Wunderground v.1.15,2013-09-18 09:25:00,
2013-09-18 05:30:00,56.9,53.1,30.19,North,360,0.0,0.0,87,0.00,,,0.00,Wunderground v.1.15,2013-09-18 09:30:00,
2013-09-18 05:35:00,56.8,53.0,30.20,North,32767,0.0,0.0,87,0.00,,,0.00,Wunderground v.1.15,2013-09-18 09:35:00,
2013-09-18 05:45:00,56.4,52.6,30.19,North,32767,0.0,0.0,87,0.00,,,0.00,Wunderground v.1.15,2013-09-18 09:45:00,
2013-09-18 05:55:00,56.2,52.7,30.20,North,32767,0.0,0.0,88,0.00,,,0.00,Wunderground v.1.15,2013-09-18 09:55:00,
2013-09-18 06:05:00,56.0,52.5,30.19,North,360,0.0,0.0,88,0.00,,,0.00,Wunderground v.1.15,2013-09-18 10:05:00,
2013-09-18 06:15:00,55.7,52.5,30.19,North,32767,0.0,0.0,89,0.00,,,0.00,Wunderground v.1.15,2013-09-18 10:15:00,
2013-09-18 06:20:00,55.5,52.3,30.20,North,360,0.0,0.0,89,0.00,,,0.00,Wunderground v.1.15,2013-09-18 10:20:00,
2013-09-18 06:30:00,55.1,52.2,30.20,North,32767,0.0,0.0,90,0.00,,,0.00,Wunderground v.1.15,2013-09-18 10:30:00,
2013-09-18 06:35:00,55.0,52.1,30.20,North,32767,0.0,0.0,90,0.00,,,0.00,Wunderground v.1.15,2013-09-18 10:35:00,
2013-09-18 06:40:00,54.9,52.0,30.20,North,360,0.0,0.0,90,0.00,,,0.00,Wunderground v.1.15,2013-09-18 10:40:00,
2013-09-18 06:45:00,54.8,52.2,30.20,North,32767,0.0,0.0,91,0.00,,,0.00,Wunderground v.1.15,2013-09-18 10:45:00,
2013-09-18 06:55:00,54.7,52.1,30.20,North,360,0.0,0.0,91,0.00,,,0.00,Wunderground v.1.15,2013-09-18 10:55:00,
2013-09-18 07:00:00,54.6,52.0,30.21,North,360,0.0,0.0,91,0.00,,,0.00,Wunderground v.1.15,2013-09-18 11:00:00,
2013-09-18 07:05:00,54.5,51.9,30.21,North,360,0.0,0.0,91,0.00,,,0.00,Wunderground v.1.15,2013-09-18 11:05:00,
2013-09-18 07:15:00,54.2,51.9,30.21,North,360,0.0,0.0,92,0.00,,,0.00,Wunderground v.1.15,2013-09-18 11:15:00,
2013-09-18 07:20:00,54.1,51.8,30.21,North,32767,0.0,0.0,92,0.00,,,0.00,Wunderground v.1.15,2013-09-18 11:20:00,
2013-09-18 07:25:00,54.0,51.7,30.21,North,32767,0.0,0.0,92,0.00,,,0.00,Wunderground v.1.15,2013-09-18 11:25:00,
2013-09-18 07:35:00,53.7,51.7,30.21,North,32767,0.0,0.0,93,0.00,,,0.00,Wunderground v.1.15,2013-09-18 11:35:00,
2013-09-18 07:40:00,53.6,51.6,30.21,North,32767,0.0,0.0,93,0.00,,,0.00,Wunderground v.1.15,2013-09-18 11:40:00,
2013-09-18 07:45:00,53.5,51.5,30.22,North,360,0.0,0.0,93,0.00,,,0.00,Wunderground v.1.15,2013-09-18 11:45:00,
2013-09-18 07:50:00,53.5,51.8,30.22,North,360,0.0,0.0,94,0.00,,,0.00,Wunderground v.1.15,2013-09-18 11:50:00,
2013-09-18 07:55:00,53.5,51.8,30.21,North,360,0.0,0.0,94,0.00,,,0.00,Wunderground v.1.15,2013-09-18 11:55:00,
2013-09-18 08:00:00,53.5,51.8,30.22,North,360,0.0,0.0,94,0.00,,,0.00,Wunderground v.1.15,2013-09-18 12:00:00,
2013-09-18 08:05:00,53.6,51.9,30.22,North,32767,0.0,0.0,94,0.00,,,0.00,Wunderground v.1.15,2013-09-18 12:05:00,
2013-09-18 08:15:00,53.7,52.3,30.22,North,32767,0.0,0.0,95,0.00,,,0.00,Wunderground v.1.15,2013-09-18 12:15:00,
2013-09-18 08:25:00,54.1,52.4,30.22,North,32767,0.0,0.0,94,0.00,,,0.00,Wunderground v.1.15,2013-09-18 12:25:00,
2013-09-18 08:30:00,54.3,52.6,30.21,North,32767,0.0,0.0,94,0.00,,,0.00,Wunderground v.1.15,2013-09-18 12:30:00,
2013-09-18 08:35:00,54.6,53.2,30.22,North,32767,0.0,0.0,95,0.00,,,0.00,Wunderground v.1.15,2013-09-18 12:35:00,
2013-09-18 08:45:00,54.7,52.7,30.23,North,32767,0.0,0.0,93,0.00,,,0.00,Wunderground v.1.15,2013-09-18 12:45:00,
2013-09-18 08:50:00,54.9,53.2,30.23,North,360,0.0,0.0,94,0.00,,,0.00,Wunderground v.1.15,2013-09-18 12:50:00,
2013-09-18 09:00:00,55.4,53.7,30.22,North,360,0.0,0.0,94,0.00,,,0.00,Wunderground v.1.15,2013-09-18 13:00:00,
2013-09-18 09:05:00,55.6,53.6,30.23,North,32767,0.0,0.0,93,0.00,,,0.00,Wunderground v.1.15,2013-09-18 13:05:00,
2013-09-18 09:15:00,55.8,53.2,30.23,North,32767,0.0,0.0,91,0.00,,,0.00,Wunderground v.1.15,2013-09-18 13:15:00,
2013-09-18 09:20:00,55.9,53.3,30.23,North,360,0.0,0.0,91,0.00,,,0.00,Wunderground v.1.15,2013-09-18 13:20:00,
2013-09-18 09:25:00,56.0,53.4,30.23,North,360,0.0,0.0,91,0.00,,,0.00,Wunderground v.1.15,2013-09-18 13:25:00,
2013-09-18 09:35:00,55.9,53.0,30.24,North,32767,0.0,0.0,90,0.00,,,0.00,Wunderground v.1.15,2013-09-18 13:35:00,
2013-09-18 09:45:00,56.0,53.4,30.24,North,32767,0.0,0.0,91,0.00,,,0.00,Wunderground v.1.15,2013-09-18 13:45:00,
2013-09-18 09:55:00,56.4,53.8,30.24,North,32767,0.0,0.0,91,0.00,,,0.00,Wunderground v.1.15,2013-09-18 13:55:00,
2013-09-18 10:05:00,56.8,53.6,30.24,North,32767,0.0,0.0,89,0.00,,,0.00,Wunderground v.1.15,2013-09-18 14:05:00,
2013-09-18 10:15:00,57.4,54.2,30.24,North,360,0.0,0.0,89,0.00,,,0.00,Wunderground v.1.15,2013-09-18 14:15:00,
2013-09-18 10:20:00,57.5,54.3,30.24,North,32767,0.0,0.0,89,0.00,,,0.00,Wunderground v.1.15,2013-09-18 14:20:00,
2013-09-18 10:25:00,57.6,54.1,30.24,North,32767,0.0,0.0,88,0.00,,,0.00,Wunderground v.1.15,2013-09-18 14:25:00,
2013-09-18 10:35:00,58.0,54.5,30.24,North,360,0.0,0.0,88,0.00,,,0.00,Wunderground v.1.15,2013-09-18 14:35:00,
2013-09-18 10:40:00,58.0,54.5,30.24,North,360,0.0,0.0,88,0.00,,,0.00,Wunderground v.1.15,2013-09-18 14:40:00,
2013-09-18 10:45:00,57.9,54.4,30.23,North,32767,0.0,0.0,88,0.00,,,0.00,Wunderground v.1.15,2013-09-18 14:45:00,
2013-09-18 10:55:00,58.0,54.8,30.24,North,32767,0.0,0.0,89,0.00,,,0.00,Wunderground v.1.15,2013-09-18 14:55:00,
2013-09-18 11:00:00,58.1,54.2,30.23,North,32767,0.0,0.0,87,0.00,,,0.00,Wunderground v.1.15,2013-09-18 15:00:00,
2013-09-18 11:05:00,58.2,54.7,30.23,North,32767,0.0,0.0,88,0.00,,,0.00,Wunderground v.1.15,2013-09-18 15:05:00,
2013-09-18 11:15:00,58.7,55.2,30.23,North,32767,0.0,0.0,88,0.00,,,0.00,Wunderground v.1.15,2013-09-18 15:15:00,
2013-09-18 11:25:00,59.9,56.0,30.23,North,360,0.0,0.0,87,0.00,,,0.00,Wunderground v.1.15,2013-09-18 15:25:00,
2013-09-18 11:30:00,60.5,56.3,30.23,North,32767,0.0,0.0,86,0.00,,,0.00,Wunderground v.1.15,2013-09-18 15:30:00,
2013-09-18 11:35:00,60.6,55.7,30.23,North,32767,0.0,0.0,84,0.00,,,0.00,Wunderground v.1.15,2013-09-18 15:35:00,
2013-09-18 11:40:00,60.8,56.3,30.23,North,360,0.0,0.0,85,0.00,,,0.00,Wunderground v.1.15,2013-09-18 15:40:00,
2013-09-18 11:50:00,61.5,56.6,30.23,North,32767,0.0,0.0,84,0.00,,,0.00,Wunderground v.1.15,2013-09-18 15:50:00,
2013-09-18 11:55:00,62.2,57.6,30.23,North,32767,0.0,0.0,85,0.00,,,0.00,Wunderground v.1.15,2013-09-18 15:55:00,
2013-09-18 12:00:00,62.2,56.6,30.22,North,32767,0.0,0.0,82,0.00,,,0.00,Wunderground v.1.15,2013-09-18 16:00:00,
2013-09-18 12:05:00,62.0,56.4,30.22,North,360,0.0,0.0,82,0.00,,,0.00,Wunderground v.1.15,2013-09-18 16:05:00,
2013-09-18 12:10:00,61.8,56.6,30.21,North,32767,0.0,0.0,83,0.00,,,0.00,Wunderground v.1.15,2013-09-18 16:10:00,
2013-09-18 12:15:00,61.7,56.5,30.22,North,32767,0.0,0.0,83,0.00,,,0.00,Wunderground v.1.15,2013-09-18 16:15:00,
2013-09-18 12:25:00,61.9,56.7,30.21,North,360,0.0,0.0,83,0.00,,,0.00,Wunderground v.1.15,2013-09-18 16:25:00,
2013-09-18 12:35:00,61.9,56.7,30.21,North,360,0.0,0.0,83,0.00,,,0.00,Wunderground v.1.15,2013-09-18 16:35:00,
2013-09-18 12:40:00,62.0,56.4,30.20,North,360,0.0,0.0,82,0.00,,,0.00,Wunderground v.1.15,2013-09-18 16:40:00,
2013-09-18 12:45:00,62.2,57.3,30.20,North,32767,0.0,0.0,84,0.00,,,0.00,Wunderground v.1.15,2013-09-18 16:45:00,
2013-09-18 12:50:00,62.3,57.1,30.20,North,360,0.0,0.0,83,0.00,,,0.00,Wunderground v.1.15,2013-09-18 16:50:00,
2013-09-18 13:00:00,62.5,57.3,30.20,North,32767,0.0,0.0,83,0.00,,,0.00,Wunderground v.1.15,2013-09-18 17:00:00,
2013-09-18 13:05:00,62.6,57.4,30.20,North,360,0.0,0.0,83,0.00,,,0.00,Wunderground v.1.15,2013-09-18 17:05:00,
2013-09-18 13:15:00,62.8,57.9,30.20,North,32767,0.0,0.0,84,0.00,,,0.00,Wunderground v.1.15,2013-09-18 17:15:00,
2013-09-18 13:20:00,62.8,57.2,30.19,North,32767,0.0,0.0,82,0.00,,,0.00,Wunderground v.1.15,2013-09-18 17:20:00,
2013-09-18 13:30:00,62.7,57.8,30.19,North,32767,0.0,0.0,84,0.00,,,0.00,Wunderground v.1.15,2013-09-18 17:30:00,
2013-09-18 13:35:00,62.7,57.5,30.19,North,32767,0.0,0.0,83,0.00,,,0.00,Wunderground v.1.15,2013-09-18 17:35:00,
2013-09-18 13:45:00,62.4,57.5,30.19,North,360,0.0,0.0,84,0.00,,,0.00,Wunderground v.1.15,2013-09-18 17:45:00,
2013-09-18 13:50:00,62.3,57.7,30.19,North,32767,0.0,0.0,85,0.00,,,0.00,Wunderground v.1.15,2013-09-18 17:50:00,
2013-09-18 14:00:00,62.0,57.4,30.19,North,360,0.0,0.0,85,0.00,,,0.00,Wunderground v.1.15,2013-09-18 18:00:00,
2013-09-18 14:05:00,62.0,57.4,30.19,North,32767,0.0,0.0,85,0.00,,,0.00,Wunderground v.1.15,2013-09-18 18:05:00,
2013-09-18 14:15:00,61.8,57.2,30.19,North,32767,0.0,0.0,85,0.00,,,0.00,Wunderground v.1.15,2013-09-18 18:15:00,
2013-09-18 14:20:00,61.8,57.6,30.19,North,32767,0.0,0.0,86,0.00,,,0.00,Wunderground v.1.15,2013-09-18 18:20:00,
2013-09-18 14:30:00,61.9,57.7,30.19,North,32767,0.0,0.0,86,0.00,,,0.00,Wunderground v.1.15,2013-09-18 18:30:00,
2013-09-18 14:35:00,62.1,57.9,30.19,North,32767,0.0,0.0,86,0.00,,,0.00,Wunderground v.1.15,2013-09-18 18:35:00,
2013-09-18 14:40:00,62.2,57.6,30.19,North,32767,0.0,0.0,85,0.00,,,0.00,Wunderground v.1.15,2013-09-18 18:40:00,
2013-09-18 14:45:00,62.2,57.6,30.19,North,360,0.0,0.0,85,0.00,,,0.00,Wunderground v.1.15,2013-09-18 18:45:00,
2013-09-18 14:55:00,62.3,58.1,30.18,North,360,0.0,0.0,86,0.00,,,0.00,Wunderground v.1.15,2013-09-18 18:55:00,
2013-09-18 15:00:00,62.2,58.0,30.18,North,32767,0.0,0.0,86,0.00,,,0.00,Wunderground v.1.15,2013-09-18 19:00:00,
2013-09-18 15:05:00,62.2,58.0,30.18,North,360,0.0,0.0,86,0.00,,,0.00,Wunderground v.1.15,2013-09-18 19:05:00,
2013-09-18 15:20:00,62.3,58.4,30.18,North,32767,0.0,0.0,87,0.00,,,0.00,Wunderground v.1.15,2013-09-18 19:20:00,
2013-09-18 15:30:00,62.5,58.3,30.18,North,32767,0.0,0.0,86,0.00,,,0.00,Wunderground v.1.15,2013-09-18 19:30:00,
2013-09-18 15:35:00,62.6,58.4,30.18,North,32767,0.0,0.0,86,0.00,,,0.00,Wunderground v.1.15,2013-09-18 19:35:00,
2013-09-18 15:45:00,62.5,58.3,30.17,North,32767,0.0,0.0,86,0.00,,,0.00,Wunderground v.1.15,2013-09-18 19:45:00,
2013-09-18 15:50:00,62.6,58.4,30.17,North,360,0.0,0.0,86,0.00,,,0.00,Wunderground v.1.15,2013-09-18 19:50:00,
2013-09-18 15:55:00,62.5,58.3,30.17,North,32767,0.0,0.0,86,0.00,,,0.00,Wunderground v.1.15,2013-09-18 19:55:00,
2013-09-18 16:00:00,62.5,58.3,30.17,North,360,0.0,0.0,86,0.00,,,0.00,Wunderground v.1.15,2013-09-18 20:00:00,
2013-09-18 16:05:00,62.5,58.6,30.17,North,360,0.0,0.0,87,0.00,,,0.00,Wunderground v.1.15,2013-09-18 20:05:00,
2013-09-18 16:15:00,62.7,58.8,30.16,North,32767,0.0,0.0,87,0.00,,,0.00,Wunderground v.1.15,2013-09-18 20:15:00,
2013-09-18 16:20:00,62.7,58.5,30.16,North,32767,0.0,0.0,86,0.00,,,0.00,Wunderground v.1.15,2013-09-18 20:20:00,
2013-09-18 16:30:00,62.5,58.3,30.16,North,32767,0.0,0.0,86,0.00,,,0.00,Wunderground v.1.15,2013-09-18 20:30:00,
2013-09-18 16:40:00,62.4,58.5,30.16,North,360,0.0,0.0,87,0.00,,,0.00,Wunderground v.1.15,2013-09-18 20:40:00,
2013-09-18 16:45:00,62.4,58.5,30.16,North,32767,0.0,0.0,87,0.00,,,0.00,Wunderground v.1.15,2013-09-18 20:45:00,
2013-09-18 16:50:00,62.4,58.5,30.16,North,32767,0.0,0.0,87,0.00,,,0.00,Wunderground v.1.15,2013-09-18 20:50:00,
2013-09-18 16:55:00,62.4,58.5,30.16,North,32767,0.0,0.0,87,0.00,,,0.00,Wunderground v.1.15,2013-09-18 20:55:00,
2013-09-18 17:05:00,62.4,58.8,30.16,North,32767,0.0,0.0,88,0.00,,,0.00,Wunderground v.1.15,2013-09-18 21:05:00,
2013-09-18 17:15:00,62.4,58.8,30.16,North,32767,0.0,0.0,88,0.00,,,0.00,Wunderground v.1.15,2013-09-18 21:15:00,
2013-09-18 17:20:00,62.5,59.2,30.16,North,360,0.0,0.0,89,0.00,,,0.00,Wunderground v.1.15,2013-09-18 21:20:00,
2013-09-18 17:25:00,62.5,59.2,30.16,North,32767,0.0,0.0,89,0.00,,,0.00,Wunderground v.1.15,2013-09-18 21:25:00,
2013-09-18 17:30:00,62.4,59.1,30.16,North,360,0.0,0.0,89,0.00,,,0.00,Wunderground v.1.15,2013-09-18 21:30:00,
2013-09-18 17:40:00,62.1,59.1,30.16,North,360,0.0,0.0,90,0.00,,,0.00,Wunderground v.1.15,2013-09-18 21:40:00,
2013-09-18 17:45:00,61.9,58.9,30.16,North,360,0.0,0.0,90,0.00,,,0.01,Wunderground v.1.15,2013-09-18 21:45:00,
2013-09-18 17:55:00,61.8,59.1,30.16,North,360,0.0,0.0,91,0.00,,,0.01,Wunderground v.1.15,2013-09-18 21:55:00,
2013-09-18 18:00:00,61.6,59.3,30.16,North,32767,0.0,0.0,92,0.00,,,0.01,Wunderground v.1.15,2013-09-18 22:00:00,
2013-09-18 18:05:00,61.4,59.1,30.16,North,32767,0.0,0.0,92,0.00,,,0.01,Wunderground v.1.15,2013-09-18 22:05:00,
2013-09-18 18:15:00,61.3,59.3,30.16,North,360,0.0,0.0,93,0.00,,,0.01,Wunderground v.1.15,2013-09-18 22:15:00,
2013-09-18 18:20:00,61.3,59.3,30.16,North,32767,0.0,0.0,93,0.00,,,0.01,Wunderground v.1.15,2013-09-18 22:20:00,
2013-09-18 18:30:00,61.1,59.1,30.16,North,32767,0.0,0.0,93,0.00,,,0.01,Wunderground v.1.15,2013-09-18 22:30:00,
2013-09-18 18:35:00,61.0,59.0,30.16,North,32767,0.0,0.0,93,0.00,,,0.01,Wunderground v.1.15,2013-09-18 22:35:00,
2013-09-18 18:45:00,60.9,59.2,30.16,North,32767,0.0,0.0,94,0.00,,,0.01,Wunderground v.1.15,2013-09-18 22:45:00,
2013-09-18 18:50:00,60.9,59.2,30.15,North,360,0.0,0.0,94,0.00,,,0.01,Wunderground v.1.15,2013-09-18 22:50:00,
2013-09-18 18:55:00,60.7,59.0,30.15,North,32767,0.0,0.0,94,0.00,,,0.01,Wunderground v.1.15,2013-09-18 22:55:00,
2013-09-18 19:00:00,60.6,58.9,30.15,North,32767,0.0,0.0,94,0.00,,,0.01,Wunderground v.1.15,2013-09-18 23:00:00,
2013-09-18 19:05:00,60.6,58.9,30.15,North,32767,0.0,0.0,94,0.00,,,0.01,Wunderground v.1.15,2013-09-18 23:05:00,
2013-09-18 19:15:00,60.4,58.7,30.15,North,360,0.0,0.0,94,0.00,,,0.01,Wunderground v.1.15,2013-09-18 23:15:00,
2013-09-18 19:20:00,60.3,58.9,30.15,North,32767,0.0,0.0,95,0.00,,,0.01,Wunderground v.1.15,2013-09-18 23:20:00,
2013-09-18 19:30:00,60.2,58.8,30.15,North,32767,0.0,0.0,95,0.00,,,0.01,Wunderground v.1.15,2013-09-18 23:30:00,
2013-09-18 19:35:00,60.2,58.8,30.15,North,360,0.0,0.0,95,0.00,,,0.01,Wunderground v.1.15,2013-09-18 23:35:00,
2013-09-18 19:45:00,60.1,58.7,30.15,North,360,0.0,0.0,95,0.00,,,0.01,Wunderground v.1.15,2013-09-18 23:45:00,
2013-09-18 19:50:00,60.1,58.7,30.15,North,32767,0.0,0.0,95,0.00,,,0.01,Wunderground v.1.15,2013-09-18 23:50:00,
2013-09-18 19:55:00,60.0,58.6,30.15,North,360,0.0,0.0,95,0.00,,,0.01,Wunderground v.1.15,2013-09-18 23:55:00,
2013-09-18 20:00:00,60.0,58.9,30.15,North,32767,0.0,0.0,96,0.00,,,0.01,Wunderground v.1.15,2013-09-19 00:00:00,
2013-09-18 20:05:00,60.0,58.9,30.15,North,32767,0.0,0.0,96,0.00,,,0.01,Wunderground v.1.15,2013-09-19 00:05:00,
2013-09-18 20:15:00,60.0,58.9,30.15,North,32767,0.0,0.0,96,0.00,,,0.01,Wunderground v.1.15,2013-09-19 00:15:00,
2013-09-18 20:20:00,60.0,58.9,30.15,North,360,0.0,0.0,96,0.00,,,0.01,Wunderground v.1.15,2013-09-19 00:20:00,
2013-09-18 20:30:00,59.9,58.8,30.15,North,32767,0.0,0.0,96,0.00,,,0.01,Wunderground v.1.15,2013-09-19 00:30:00,
2013-09-18 20:35:00,59.9,58.8,30.15,North,360,0.0,0.0,96,0.00,,,0.01,Wunderground v.1.15,2013-09-19 00:35:00,
2013-09-18 20:40:00,59.9,58.8,30.16,North,32767,0.0,0.0,96,0.00,,,0.01,Wunderground v.1.15,2013-09-19 00:40:00,
2013-09-18 20:45:00,59.9,59.0,30.16,North,32767,0.0,0.0,97,0.00,,,0.01,Wunderground v.1.15,2013-09-19 00:45:00,
2013-09-18 20:50:00,59.9,59.0,30.16,North,32767,0.0,0.0,97,0.00,,,0.01,Wunderground v.1.15,2013-09-19 00:50:00,
2013-09-18 21:00:00,59.9,59.0,30.16,North,360,0.0,0.0,97,0.00,,,0.01,Wunderground v.1.15,2013-09-19 01:00:00,
2013-09-18 21:05:00,59.8,58.9,30.16,North,32767,0.0,0.0,97,0.00,,,0.01,Wunderground v.1.15,2013-09-19 01:05:00,
2013-09-18 21:15:00,60.0,59.1,30.16,North,32767,0.0,0.0,97,0.00,,,0.01,Wunderground v.1.15,2013-09-19 01:15:00,
2013-09-18 21:25:00,59.9,59.0,30.17,North,360,0.0,0.0,97,0.00,,,0.01,Wunderground v.1.15,2013-09-19 01:25:00,
2013-09-18 21:30:00,59.8,58.9,30.17,North,32767,0.0,0.0,97,0.00,,,0.01,Wunderground v.1.15,2013-09-19 01:30:00,
2013-09-18 21:35:00,59.8,59.2,30.17,North,360,0.0,0.0,98,0.00,,,0.01,Wunderground v.1.15,2013-09-19 01:35:00,
2013-09-18 21:40:00,59.9,59.3,30.17,North,32767,0.0,0.0,98,0.00,,,0.01,Wunderground v.1.15,2013-09-19 01:40:00,
2013-09-18 21:50:00,59.8,59.2,30.17,North,360,0.0,0.0,98,0.00,,,0.01,Wunderground v.1.15,2013-09-19 01:50:00,
2013-09-18 22:00:00,59.9,59.3,30.17,North,32767,0.0,0.0,98,0.00,,,0.01,Wunderground v.1.15,2013-09-19 02:00:00,
2013-09-18 22:05:00,59.9,59.3,30.17,North,360,0.0,0.0,98,0.00,,,0.01,Wunderground v.1.15,2013-09-19 02:05:00,
2013-09-18 22:20:00,59.8,59.2,30.17,North,360,0.0,0.0,98,0.00,,,0.01,Wunderground v.1.15,2013-09-19 02:20:00,
2013-09-18 22:25:00,59.8,59.2,30.17,North,32767,0.0,0.0,98,0.00,,,0.01,Wunderground v.1.15,2013-09-19 02:25:00,
2013-09-18 22:35:00,59.8,59.2,30.17,North,32767,0.0,0.0,98,0.00,,,0.01,Wunderground v.1.15,2013-09-19 02:35:00,
2013-09-18 22:45:00,59.8,59.2,30.17,North,32767,0.0,0.0,98,0.00,,,0.01,Wunderground v.1.15,2013-09-19 02:45:00,
2013-09-18 22:50:00,59.8,59.2,30.17,North,32767,0.0,0.0,98,0.00,,,0.01,Wunderground v.1.15,2013-09-19 02:50:00,
2013-09-18 22:55:00,59.7,59.1,30.17,North,32767,0.0,0.0,98,0.00,,,0.01,Wunderground v.1.15,2013-09-19 02:55:00,
2013-09-18 23:05:00,59.6,59.0,30.16,North,32767,0.0,0.0,98,0.00,,,0.01,Wunderground v.1.15,2013-09-19 03:05:00,
2013-09-18 23:15:00,59.6,59.0,30.17,North,360,0.0,0.0,98,0.00,,,0.01,Wunderground v.1.15,2013-09-19 03:15:00,
2013-09-18 23:20:00,59.6,59.0,30.17,North,32767,0.0,0.0,98,0.00,,,0.01,Wunderground v.1.15,2013-09-19 03:20:00,
2013-09-18 23:25:00,59.6,59.0,30.17,North,360,0.0,0.0,98,0.00,,,0.01,Wunderground v.1.15,2013-09-19 03:25:00,
2013-09-18 23:30:00,59.6,59.0,30.17,North,32767,0.0,0.0,98,0.00,,,0.01,Wunderground v.1.15,2013-09-19 03:30:00,
2013-09-18 23:40:00,59.6,59.0,30.17,North,32767,0.0,0.0,98,0.00,,,0.01,Wunderground v.1.15,2013-09-19 03:40:00,
2013-09-18 23:45:00,59.5,58.9,30.17,North,360,0.0,0.0,98,0.00,,,0.01,Wunderground v.1.15,2013-09-19 03:45:00,
2013-09-18 23:55:00,59.5,58.9,30.17,North,360,0.0,0.0,98,0.00,,,0.01,Wunderground v.1.15,2013-09-19 03:55:00,